Simultaneous Nadir Overpasses (SNOs) Predictions

Prediction of SNOs between GOES-15 and TERRA Satellite Orbit:

Table of predicted SNOs for the next 14.0 days since TLE Epoch: 5/10/2014
Index Date Time (GOES-15) GOES-15 Lat,Lon TERRA Lat,Lon Distance(km) Time Diff (sec)
1 05/11/2014 19:28:07 -0.05,-135.07 -0.25,-134.19 99.95 80
2 05/12/2014 07:49:32 0.05,-135.03 -0.85,-139.39 494.79 80
3 05/13/2014 19:15:57 -0.05,-135.00 -0.82,-131.23 427.53 80
4 05/14/2014 07:37:22 0.05,-134.96 -0.27,-136.43 167.45 80
5 05/16/2014 07:22:33 0.05,-134.88 0.38,-133.48 159.06 80
6 05/16/2014 19:43:48 -0.05,-134.87 0.77,-138.63 427.74 80
7 05/18/2014 07:10:23 0.06,-134.79 0.98,-130.53 484.74 80
8 05/18/2014 19:31:39 -0.06,-134.78 0.11,-135.69 102.16 80
9 05/20/2014 19:22:08
